User: anonymous   Login
Location: Unspecified
(0.0000°N, 0.0000°E)
Time: 01:23:46
(UTC+00:00)
Language:

Tiros 1 - Orbit

View from above orbital plane
View from above orbital plane
View from above satellite
View from above satellite

Ground track
Ground track

The orbit data is extracted from the following two-line orbital elements,

1 00029U 60002B   15091.51407613  .00000874  00000-0  16308-3 0  9992
2 00029 048.3795 291.1630 0024138 008.7024 351.4302 14.73718733937753
Epoch (UTC): 01 April 2015 12:20:16
Eccentricity: 0.0024138
inclination: 48.3795°
perigee height: 632 km
apogee height: 666 km
right ascension of ascending node: 291.1630°
argument of perigee: 8.7024°
revolutions per day: 14.73718733
mean anomaly at epoch: 351.4302°
orbit number at epoch: 93775

The dashed part of the orbit path shows where the satellite is in the earth's shadow,  

DLR